[[{"header":{"parameterUnit":"m.s-1","parameterCategory":1,"la1":30.2992,"la2":30.254,"lo1":-89.0895,"lo2":-89.0443,"dy":0.0025,"dx":0.0025,"nx":19,"ny":19,"refTime":"2026-05-21T03:00:00:Z","depth":0,"parameterNumber":2,"parameterNumberName":"U-component_of_WINDS"},"data":[0,0,0,-0.9517,-0.9519,-0.9631,-0.9631,-0.9765,-0.9766,0,0,0,0,0,0,0,0,0,0,0,-0.9474,-0.9475,-0.9517,-0.9519,-0.9631,-0.9631,-0.9764,-0.9766,0,0,0,0,0,0,0,0,0,0,0,-0.9474,-0.9475,-0.9475,-0.952,-0.963,-0.9631,-0.9764,-0.9684,0,0,0,0,0,0,0,0,0,0,-0.9578,-0.9528,-0.9475,-0.9475,-0.952,-0.963,-0.9631,-0.968,-0.9689,-0.9709,0,-0.9721,0,-0.9745,-0.9774,-0.9774,0,0,0,-0.9527,-0.9521,-0.9559,-0.9475,-0.9521,-0.963,-0.9583,-0.9685,-0.9695,-0.972,-0.9723,-0.9728,-0.9747,-0.9774,-0.9775,-0.9857,-0.9857,0,0,-0.9521,-0.949,-0.9552,-0.9565,-0.9543,-0.9579,-0.9586,-0.9691,-0.9693,-0.9723,-0.9731,-0.9749,-0.9775,-0.9776,-0.9857,-0.9857,0,0,0,-0.9498,-0.9485,-0.9521,-0.9559,-0.958,-0.9582,-0.959,-0.9689,-0.9703,-0.9733,-0.9751,-0.9776,-0.9777,-0.9857,-0.9857,-0.9828,0,0,0,-0.9495,-0.9472,-0.9518,-0.95,-0.9577,-0.9635,-0.9584,-0.9696,-0.9708,-0.975,-0.9776,-0.9778,-0.9857,-0.9857,-0.9828,-0.9819,0,0,0,-0.947,-0.9469,-0.9482,-0.9499,-0.9545,-0.9634,-0.9654,-0.9699,-0.9719,-0.9774,-0.9779,-0.9857,-0.9857,-0.9829,-0.982,-0.9833,0,0,0,-0.9436,-0.9453,-0.9481,-0.9508,-0.9544,-0.9613,-0.9654,-0.9708,-0.9751,-0.9776,-0.9857,-0.9857,-0.9829,-0.9821,-0.9834,-0.9839,-0.9837,0,0,-0.9441,-0.9453,-0.9472,-0.9499,-0.9556,-0.9599,-0.9654,-0.9723,-0.9758,-0.9823,-0.9826,-0.9828,-0.9821,-0.9833,-0.9839,-0.9838,0,0,0,-0.9463,-0.9476,-0.9498,-0.9537,-0.959,-0.9637,-0.9701,-0.9728,-0.9785,-0.9784,-0.9837,-0.9833,-0.9842,-0.9846,-0.9845,-0.9856,-0.9857,-0.9857,-0.9857,-0.9425,-0.9468,-0.9503,-0.956,-0.9598,-0.9667,-0.9703,-0.9752,-0.9784,-0.9796,-0.9815,-0.9813,-0.9817,-0.9816,-0.9827,-0.9821,-0.9821,-0.9821,-0.9821,-0.9437,-0.9464,-0.9508,-0.9557,-0.9604,-0.9648,-0.9716,-0.9739,-0.9789,-0.9801,-0.9811,-0.9822,-0.9813,-0.9825,-0.9819,-0.9819,-0.9819,-0.9819,-0.982,-0.9418,-0.9438,-0.947,-0.9533,-0.9578,-0.9638,-0.9684,-0.9725,-0.9765,-0.9775,-0.9802,-0.9803,-0.9811,-0.9785,-0.9785,-0.9785,-0.9785,-0.9785,-0.9785,-0.9385,-0.9422,-0.9454,-0.9514,-0.9547,-0.9595,-0.9667,-0.9702,-0.9751,-0.9778,-0.9779,-0.9812,-0.9803,-0.9801,-0.9785,-0.9785,-0.9785,-0.9785,-0.9785,-0.9382,-0.939,-0.9439,-0.9472,-0.9549,-0.9593,-0.9646,-0.9714,-0.9749,-0.9772,-0.9804,-0.979,-0.9806,-0.9807,-0.9805,-0.9792,-0.9792,-0.9792,-0.9792,-0.9366,-0.9379,-0.944,-0.949,-0.9545,-0.9599,-0.9659,-0.9717,-0.9779,-0.9804,-0.9813,-0.9814,-0.9813,-0.983,-0.9831,-0.983,-0.9824,-0.9824,-0.9824,-0.9368,-0.9388,-0.9428,-0.9486,-0.9551,-0.9606,-0.9665,-0.9725,-0.9797,-0.9826,-0.9826,-0.9825,-0.9828,-0.9826,-0.9853,-0.9853,-0.9853,0,0]},{"header":{"parameterUnit":"m.s-1","parameterCategory":1,"la1":30.2992,"la2":30.254,"lo1":-89.0895,"lo2":-89.0443,"dy":0.0025,"dx":0.0025,"nx":19,"ny":19,"refTime":"2026-05-21T03:00:00:Z","depth":0,"parameterNumber":3,"parameterNumberName":"V-component_of_WINDS"},"data":[0,0,0,5.2956,5.2958,5.3024,5.3024,5.3115,5.3116,0,0,0,0,0,0,0,0,0,0,0,5.2944,5.2945,5.2956,5.2958,5.3024,5.3024,5.3115,5.3116,0,0,0,0,0,0,0,0,0,0,0,5.2943,5.2944,5.2946,5.2958,5.3024,5.3024,5.3115,5.3062,0,0,0,0,0,0,0,0,0,0,5.2997,5.2993,5.2944,5.2946,5.2959,5.3024,5.3024,5.3059,5.3065,5.3089,0,5.3114,0,5.3117,5.3123,5.3123,0,0,0,5.2952,5.2988,5.2999,5.2946,5.296,5.3024,5.2993,5.3063,5.3069,5.3097,5.3116,5.3119,5.3118,5.3124,5.3124,5.3283,5.3284,0,0,5.2949,5.2959,5.2995,5.3004,5.2997,5.2991,5.2995,5.3067,5.3087,5.3116,5.3121,5.312,5.3124,5.3125,5.3282,5.3283,0,0,0,5.2942,5.2957,5.2966,5.3001,5.3012,5.2993,5.2998,5.3083,5.3086,5.3122,5.3121,5.3125,5.3126,5.3281,5.3282,5.334,0,0,0,5.294,5.2953,5.2965,5.2972,5.3011,5.3049,5.3013,5.3081,5.3089,5.312,5.3125,5.3127,5.3279,5.3281,5.3336,5.3366,0,0,0,5.2937,5.2952,5.2964,5.2972,5.3001,5.3048,5.3054,5.3082,5.3089,5.3123,5.3127,5.3279,5.3281,5.3333,5.336,5.3409,0,0,0,5.2937,5.3017,5.2966,5.3054,5.3001,5.3085,5.3054,5.3115,5.3152,5.3125,5.328,5.3282,5.3332,5.3357,5.3405,5.345,5.3471,0,0,5.3043,5.303,5.3081,5.3037,5.3132,5.3074,5.3176,5.3201,5.3194,5.3253,5.3256,5.3338,5.336,5.3408,5.3585,5.3601,0,0,0,5.3118,5.3154,5.3177,5.3213,5.3234,5.3252,5.326,5.3268,5.3317,5.3227,5.3369,5.3382,5.341,5.343,5.3444,5.3466,5.3293,5.3292,5.3292,5.3283,5.327,5.3352,5.3346,5.3381,5.3387,5.3412,5.3424,5.3402,5.3435,5.3452,5.3561,5.3586,5.3597,5.362,5.3477,5.3477,5.3477,5.3477,5.3435,5.3484,5.345,5.3518,5.3503,5.3559,5.3565,5.3547,5.3595,5.3548,5.3572,5.352,5.3615,5.3634,5.3481,5.3481,5.348,5.348,5.3479,5.354,5.3561,5.357,5.3617,5.3655,5.3646,5.3693,5.3678,5.3664,5.3688,5.3702,5.3701,5.3696,5.3696,5.3696,5.3696,5.3697,5.3697,5.3697,5.3645,5.3653,5.3695,5.3721,5.374,5.3763,5.3767,5.3784,5.38,5.3785,5.3785,5.3757,5.3628,5.3594,5.3703,5.3702,5.3701,5.3701,5.37,5.3802,5.3764,5.3829,5.3848,5.3874,5.3911,5.3891,5.3927,5.3939,5.3962,5.3929,5.3837,5.3822,5.381,5.3782,5.3933,5.3933,5.3933,5.3933,5.389,5.388,5.3941,5.3972,5.4,5.3987,5.4057,5.4059,5.4056,5.4061,5.4038,5.4,5.3989,5.398,5.3965,5.3939,5.4126,5.4126,5.4127,5.3984,5.3976,5.404,5.4036,5.4055,5.4071,5.4135,5.4169,5.4157,5.4134,5.4065,5.4057,5.3996,5.3977,5.3952,5.3929,5.388,0,0]}]]